Location: Observatory
(52.1446°N, 0.4624°W)
Time: 22:38:05
(UTC+00:00)

ISS - Pass Details

Date: 12 January 2018
Orbit: 402 x 407 km, 51.6° (Epoch: 22 January)

Event Time Altitude Azimuth Distance (km) Brightness Sun altitude
Exits shadow 05:23:47 28° 142° (SE) 796 -2.0 -23.9°
Drops below altitude 10° 05:25:36 10° 125° (SE) 1,465 -0.2 -23.7°
Sets 05:27:42 0° 120° (ESE) 2,324 1.1 -23.3°
